Wind_Speed
17 15 13 11 8 5 2 0 1 2 3 4 5 7 8 9 10 10 11 12 12 12 11 11 12 12 13 13 13 14 14 13 11 10 10 10 10 9 9 9 8 7 6 5
19 17 14 13 11 9 5 4 3 3 5 5 5 6 6 7 8 8 9 9 11 10 10 10 10 11 12 12 13 13 13 13 12 10 10 10 9 9 8 8 8 8 7 6
19 18 17 15 13 12 9 6 5 4 4 5 5 6 6 6 7 7 8 8 9 9 10 10 10 10 11 11 12 12 12 12 12 11 10 10 9 8 8 8 7 7 7 8
21 20 20 18 16 14 12 9 8 7 7 7 7 7 5 5 6 5 6 6 7 8 8 9 9 9 10 9 10 11 11 11 11 11 10 9 9 8 8 7 7 7 7 6
22 22 22 21 18 15 13 12 13 12 10 9 8 8 7 6 4 4 4 5 5 6 7 7 8 8 9 9 9 10 10 11 11 11 10 9 8 7 7 6 6 6 5 5
22 23 22 21 20 18 15 15 16 16 14 12 8 8 7 6 5 5 5 5 5 6 6 6 7 7 7 7 8 8 9 10 10 10 9 9 8 7 6 6 5 5 5 5
23 23 21 20 20 19 18 18 19 18 16 13 11 12 8 6 6 5 5 4 5 5 5 5 5 6 6 6 6 7 8 9 9 9 9 9 8 7 7 6 5 4 4 5
23 23 22 21 20 20 19 20 21 18 16 14 13 14 10 7 6 6 7 6 5 4 4 4 4 5 5 5 5 6 6 7 8 8 8 8 7 7 7 7 6 5 5 5
24 23 23 23 22 22 21 21 21 20 17 16 15 14 12 11 9 8 8 7 6 5 4 4 4 5 5 5 5 5 5 6 7 8 7 7 7 7 7 6 6 6 6 5
25 25 25 24 23 23 23 23 23 22 21 19 17 16 14 13 12 10 9 8 7 6 6 5 5 5 5 5 5 5 5 6 7 7 7 7 7 7 7 7 7 7 7 6
25 25 24 26 26 25 24 25 25 24 23 21 19 17 16 15 12 11 11 10 10 9 9 8 7 7 6 6 6 6 6 6 7 7 8 8 7 8 7 7 7 7 7 7
26 26 26 27 26 26 27 27 27 27 25 23 22 20 17 15 14 13 14 13 12 11 11 10 10 9 8 8 7 7 7 7 7 8 8 8 8 8 8 8 8 8 8 8
26 27 27 28 28 28 28 27 28 28 27 26 25 22 19 16 15 15 15 15 14 14 13 12 11 10 9 8 8 8 8 8 8 8 9 9 8 8 8 8 8 8 8 8
28 29 29 30 30 30 29 28 28 30 30 27 26 24 22 19 17 16 15 15 16 16 15 14 12 11 10 10 10 10 9 10 10 9 9 9 9 9 9 9 8 8 8 8
30 30 30 31 31 32 32 30 30 30 30 29 27 26 24 22 19 18 18 17 16 17 16 15 14 13 12 12 12 12 11 11 11 11 10 10 10 10 10 10 10 10 10 10
32 32 32 32 31 32 33 32 32 31 30 30 29 27 25 25 23 22 21 20 19 19 17 17 16 14 14 15 15 14 13 13 13 11 11 11 11 11 11 11 11 10 11 11
35 34 34 34 33 33 34 32 33 33 32 31 32 31 29 28 27 25 24 23 22 22 21 20 19 17 16 17 17 17 16 15 14 14 13 12 12 12 12 12 12 12 13 13
35 36 36 35 34 36 34 34 34 34 33 33 34 33 31 30 29 29 28 27 26 24 23 23 22 21 20 20 20 19 18 17 17 16 15 13 13 13 14 14 14 14 15 15
35 36 36 36 36 36 35 34 35 35 35 35 34 34 32 31 31 31 30 29 29 27 25 25 24 23 22 22 22 21 20 20 19 18 17 16 15 15 15 16 16 16 17 17
36 36 36 36 37 37 35 34 35 37 37 36 36 35 34 33 33 32 31 31 30 29 27 26 25 25 24 25 24 24 23 22 21 20 20 19 18 17 17 18 18 18 18 18
36 35 35 35 37 38 36 35 37 39 38 37 37 37 36 34 34 34 34 32 31 30 29 27 27 27 26 27 26 25 25 25 23 23 22 21 21 20 20 20 20 20 20 20
36 36 35 35 37 36 34 36 37 37 37 37 37 37 37 36 35 35 34 33 32 32 31 31 30 29 29 29 28 27 27 27 26 25 25 24 23 23 22 22 22 22 22 22
36 36 36 35 35 34 33 34 35 35 36 37 37 37 37 36 36 34 33 34 34 33 33 32 32 32 32 32 30 28 28 28 28 27 26 26 25 25 25 24 24 24 24 24
35 36 36 36 35 34 34 33 35 35 35 35 36 37 38 37 36 36 35 35 34 33 33 33 33 33 33 32 32 31 31 30 30 29 28 28 27 27 27 26 27 27 26 26
34 35 36 36 35 35 35 35 35 35 34 34 34 35 36 37 37 36 35 35 35 34 33 33 32 33 33 33 32 32 32 32 32 31 31 30 30 29 29 29 29 29 29 28
34 35 36 36 35 35 35 36 35 35 35 34 34 35 36 36 37 36 35 34 33 33 33 33 33 34 34 34 33 33 33 34 34 34 33 33 32 32 31 32 32 31 31 31
Wind_Direction
201 197 192 189 184 178 167 81 326 355 355 359 344 352 10 19 24 24 30 32 36 40 40 40 42 45 44 44 45 47 50 51 56 59 59 59 61 63 68 69 70 69 68 70
204 198 194 195 198 194 202 209 249 321 333 332 332 334 353 10 18 23 26 24 31 39 41 41 38 39 39 41 42 44 47 49 50 57 57 60 62 65 66 68 67 63 64 64
206 199 199 199 199 200 210 224 252 260 268 277 285 304 322 358 10 17 20 20 32 33 31 34 32 33 35 38 36 41 46 47 46 50 53 54 54 57 60 67 67 62 64 67
206 202 205 203 205 209 214 221 237 237 246 257 262 280 300 329 352 0 8 11 22 25 23 27 28 30 33 32 36 41 43 45 45 45 49 54 55 56 57 61 61 60 61 60
206 205 208 206 204 211 217 222 233 242 240 239 246 266 283 296 326 337 347 357 6 19 16 23 27 28 29 30 32 33 38 39 39 40 42 45 51 51 48 48 50 48 46 46
208 209 214 214 209 210 218 224 231 239 242 234 234 257 270 284 305 302 314 338 350 7 12 19 23 23 25 27 25 27 31 31 32 33 37 39 42 42 40 36 34 32 32 33
212 213 215 220 216 214 220 224 231 236 235 231 231 248 264 276 291 297 310 315 337 354 7 18 13 11 16 21 20 19 24 25 27 28 32 33 33 30 27 27 26 20 17 17
217 215 215 219 219 218 222 225 230 236 238 234 236 245 256 257 276 290 296 301 311 335 350 1 354 356 359 3 9 12 14 17 20 23 26 25 21 18 19 21 15 12 3 359
220 216 217 219 219 219 220 225 230 238 242 241 243 250 247 250 259 275 285 295 308 313 318 330 333 334 339 346 354 359 1 1 6 8 11 11 10 9 9 8 6 5 357 352
224 220 216 217 221 222 221 224 228 235 240 241 245 253 255 256 256 262 274 285 296 295 290 296 304 308 314 323 331 338 341 341 345 351 353 353 355 355 354 354 352 353 355 354
229 226 221 218 222 224 223 224 229 233 238 242 247 250 255 263 266 264 270 276 281 276 276 283 289 297 299 301 310 318 323 324 327 332 338 336 335 339 340 340 342 346 345 343
231 232 227 221 223 225 226 227 228 231 235 241 247 252 253 260 259 264 268 269 271 272 273 274 276 282 288 290 292 298 303 307 313 316 321 326 324 323 327 331 334 337 336 337
229 233 232 223 221 224 227 228 231 233 235 240 245 249 252 256 256 262 264 264 264 264 267 265 268 272 278 282 285 287 290 297 302 304 308 312 318 320 318 319 322 324 326 329
231 235 235 228 224 225 227 228 232 234 236 239 242 246 247 249 253 257 260 262 265 263 263 260 259 263 270 274 277 279 286 293 297 296 298 301 306 309 314 315 313 315 317 321
233 237 237 234 228 228 229 229 232 235 236 238 240 245 245 245 250 254 257 261 262 262 261 256 256 260 268 274 277 279 282 287 290 287 288 292 296 298 301 304 307 307 311 315
235 238 238 234 233 233 231 231 233 236 238 238 241 243 246 245 248 251 256 259 259 262 260 256 256 262 269 272 274 276 279 281 281 277 279 285 289 291 293 296 300 299 301 306
235 237 238 236 236 238 234 231 232 234 235 238 241 244 244 244 247 250 255 259 261 262 258 258 260 262 265 267 270 271 272 274 275 275 276 277 279 284 289 293 295 296 297 299
237 238 239 239 240 240 237 231 232 235 235 236 241 243 246 247 249 252 253 256 259 259 257 258 260 262 261 263 266 268 268 269 273 273 272 272 274 277 281 286 290 292 295 297
238 239 240 241 242 242 238 235 235 237 237 237 240 242 245 249 250 251 251 254 258 257 257 256 257 258 259 261 263 265 266 268 271 271 272 272 275 278 281 282 285 289 290 291
238 240 242 243 242 242 239 238 238 240 241 239 239 241 245 248 250 250 251 252 254 256 258 258 258 259 259 260 262 262 262 265 268 270 271 271 273 278 282 282 285 287 287 287
237 240 242 243 244 245 242 239 239 241 244 243 242 242 245 247 250 250 249 250 249 252 255 256 257 258 259 261 262 261 262 263 266 269 270 270 272 276 279 280 283 284 284 285
239 240 241 243 245 246 245 241 241 243 244 243 244 244 245 246 248 249 248 248 250 252 253 253 255 259 260 262 262 260 261 262 265 266 267 269 270 272 276 278 280 282 283 283
241 242 242 245 247 246 245 244 243 245 245 243 243 244 247 247 248 247 248 249 250 252 253 252 254 257 259 260 260 259 259 261 264 264 265 267 268 271 275 277 279 281 282 283
242 243 245 245 246 245 246 245 245 247 248 247 245 245 248 248 249 247 249 250 251 253 253 254 256 256 257 257 256 257 258 260 262 263 265 267 267 270 274 278 279 280 280 282
242 243 245 247 248 247 246 246 247 247 246 246 246 247 249 250 252 252 251 251 251 252 253 255 255 256 256 256 255 255 258 259 260 262 264 265 266 268 271 274 276 278 279 280
240 242 245 245 246 247 247 247 247 247 246 246 246 246 247 250 251 252 251 250 250 252 254 255 256 255 255 255 254 256 257 258 260 261 263 264 266 268 271 273 275 277 278 280
Height
5906 5910 5911 5913 5914 5916 5916 5917 5918 5918 5917 5917 5917 5917 5917 5916 5915 5914 5914 5912 5910 5909 5908 5906 5905 5903 5902 5900 5899 5897 5895 5894 5893 5892 5891 5890 5889 5888 5888 5887 5887 5886 5886 5886
5904 5907 5910 5911 5912 5914 5915 5916 5917 5918 5917 5917 5917 5916 5916 5916 5915 5915 5914 5913 5912 5910 5909 5908 5906 5905 5904 5902 5901 5899 5897 5896 5894 5893 5892 5891 5890 5890 5890 5889 5888 5887 5887 5886
5901 5906 5907 5908 5910 5911 5912 5915 5916 5917 5917 5916 5916 5916 5915 5915 5915 5915 5915 5914 5913 5911 5910 5909 5908 5906 5905 5904 5902 5901 5899 5898 5896 5895 5894 5893 5892 5891 5891 5890 5889 5889 5888 5887
5897 5901 5903 5905 5907 5909 5911 5913 5914 5915 5915 5915 5916 5915 5915 5914 5914 5914 5914 5914 5913 5912 5911 5910 5908 5907 5906 5905 5903 5902 5901 5899 5898 5897 5895 5895 5894 5893 5892 5891 5890 5889 5888 5888
5894 5897 5899 5901 5904 5907 5909 5911 5912 5913 5913 5914 5914 5914 5914 5913 5914 5914 5914 5914 5913 5912 5911 5910 5909 5908 5907 5905 5904 5903 5902 5901 5899 5898 5897 5896 5895 5894 5893 5892 5891 5890 5889 5889
5890 5893 5895 5899 5901 5903 5906 5908 5909 5910 5911 5911 5912 5912 5912 5912 5913 5913 5913 5913 5913 5912 5911 5910 5910 5908 5907 5907 5905 5904 5903 5902 5900 5899 5898 5897 5895 5895 5893 5892 5891 5891 5890 5889
5886 5888 5892 5895 5897 5900 5902 5904 5906 5906 5907 5908 5910 5909 5911 5911 5911 5911 5912 5912 5912 5911 5911 5910 5910 5909 5908 5907 5906 5905 5904 5903 5901 5900 5898 5897 5896 5895 5894 5893 5892 5891 5890 5889
5881 5885 5888 5890 5893 5896 5898 5901 5902 5903 5904 5906 5906 5906 5908 5908 5908 5909 5909 5910 5910 5910 5910 5909 5909 5909 5908 5907 5906 5905 5904 5903 5902 5900 5899 5897 5896 5895 5894 5893 5892 5891 5890 5888
5875 5880 5884 5886 5889 5892 5894 5896 5899 5901 5901 5902 5902 5903 5904 5905 5906 5906 5907 5908 5908 5908 5908 5908 5908 5908 5907 5907 5906 5905 5904 5903 5901 5900 5899 5897 5896 5895 5894 5893 5892 5891 5889 5888
5870 5875 5879 5882 5885 5887 5889 5892 5894 5895 5896 5897 5899 5899 5901 5902 5903 5904 5904 5905 5905 5906 5906 5906 5906 5906 5906 5905 5905 5904 5903 5902 5901 5899 5898 5896 5895 5894 5893 5892 5891 5890 5889 5888
5865 5869 5873 5876 5878 5881 5884 5887 5889 5891 5892 5894 5894 5898 5898 5899 5900 5900 5901 5901 5903 5904 5904 5904 5904 5904 5904 5904 5903 5902 5901 5900 5900 5898 5897 5896 5894 5893 5892 5891 5890 5889 5888 5887
5859 5863 5866 5870 5874 5877 5879 5881 5884 5886 5887 5889 5890 5894 5894 5895 5896 5897 5898 5898 5899 5901 5901 5901 5901 5901 5901 5901 5901 5901 5900 5899 5898 5897 5896 5894 5893 5892 5891 5890 5889 5887 5886 5885
5853 5857 5860 5864 5869 5871 5873 5876 5878 5880 5882 5883 5885 5889 5889 5890 5892 5893 5894 5894 5895 5897 5897 5898 5898 5898 5898 5898 5898 5898 5898 5897 5896 5895 5894 5893 5891 5890 5889 5888 5887 5886 5885 5884
5848 5850 5854 5857 5860 5863 5866 5870 5872 5874 5876 5878 5880 5883 5884 5886 5887 5888 5889 5889 5890 5891 5893 5894 5894 5895 5895 5895 5895 5895 5895 5894 5893 5892 5891 5890 5889 5888 5887 5886 5885 5884 5883 5882
5841 5844 5847 5850 5853 5856 5859 5863 5866 5868 5870 5873 5876 5878 5880 5881 5883 5884 5884 5885 5885 5887 5888 5889 5889 5890 5891 5891 5892 5892 5892 5891 5890 5889 5888 5887 5887 5886 5885 5884 5883 5882 5881 5880
5834 5837 5840 5844 5846 5849 5852 5857 5860 5862 5864 5866 5869 5872 5874 5876 5877 5878 5879 5880 5881 5882 5883 5884 5884 5885 5886 5887 5887 5888 5888 5888 5887 5886 5885 5885 5884 5883 5882 5881 5880 5879 5878 5877
5827 5830 5833 5837 5840 5842 5845 5850 5852 5854 5857 5859 5862 5865 5867 5869 5870 5872 5873 5874 5875 5876 5877 5878 5879 5880 5881 5882 5882 5883 5884 5883 5883 5882 5882 5881 5880 5880 5879 5878 5877 5876 5875 5874
5820 5822 5825 5829 5832 5834 5841 5842 5844 5846 5849 5851 5854 5856 5859 5862 5864 5865 5867 5867 5868 5870 5871 5872 5873 5874 5875 5876 5877 5878 5878 5879 5878 5878 5878 5877 5877 5876 5875 5874 5873 5872 5871 5870
5811 5814 5816 5820 5822 5825 5831 5834 5836 5838 5840 5843 5846 5849 5851 5854 5856 5857 5859 5861 5862 5863 5865 5866 5867 5868 5869 5870 5871 5872 5872 5873 5873 5873 5873 5872 5872 5872 5871 5870 5869 5867 5866 5865
5803 5805 5808 5810 5813 5816 5823 5826 5827 5829 5831 5835 5837 5840 5843 5845 5847 5849 5851 5853 5854 5856 5858 5859 5860 5861 5863 5864 5865 5866 5866 5867 5868 5868 5868 5867 5867 5866 5866 5865 5863 5862 5861 5860
5793 5795 5798 5801 5802 5806 5813 5817 5818 5821 5823 5826 5828 5832 5834 5837 5839 5842 5843 5845 5847 5849 5850 5851 5852 5854 5855 5857 5858 5858 5859 5860 5861 5861 5861 5861 5861 5860 5860 5859 5858 5858 5856 5855
5784 5787 5789 5791 5794 5800 5804 5806 5808 5811 5814 5816 5819 5822 5825 5827 5830 5832 5835 5837 5838 5840 5842 5843 5844 5846 5847 5848 5849 5850 5851 5852 5853 5853 5854 5854 5854 5854 5853 5852 5852 5851 5850 5849
5775 5779 5781 5784 5788 5791 5793 5795 5798 5800 5803 5806 5809 5812 5815 5818 5820 5823 5826 5828 5830 5831 5833 5835 5836 5838 5839 5840 5841 5842 5843 5844 5845 5846 5846 5846 5846 5846 5845 5845 5844 5843 5843 5842
5766 5769 5771 5774 5777 5781 5783 5786 5788 5791 5793 5797 5799 5803 5805 5808 5811 5814 5816 5818 5820 5822 5824 5825 5827 5829 5830 5831 5833 5834 5835 5836 5837 5838 5838 5839 5838 5838 5838 5837 5837 5836 5835 5834
5758 5760 5762 5764 5768 5771 5774 5776 5779 5782 5785 5787 5790 5793 5796 5799 5802 5804 5806 5809 5811 5812 5814 5816 5817 5819 5820 5822 5823 5825 5826 5828 5829 5830 5830 5830 5830 5830 5830 5830 5829 5828 5828 5826
5750 5751 5753 5756 5759 5761 5764 5767 5769 5772 5775 5778 5781 5784 5787 5790 5792 5794 5796 5798 5800 5802 5804 5806 5807 5809 5810 5812 5813 5815 5817 5818 5819 5820 5821 5821 5821 5821 5821 5821 5820 5819 5818 5817